SCP
0 0 0 0 0 0 0 0 0 0 0 0 0 0 0 0 0 0 0 1 1 1 0 1 1 1 1 0 0 0 0 0 0 0 0 0 0 0 0 0 0 0 0
0 0 0 0 0 0 0 0 0 0 0 0 0 0 0 0 0 0 0 0 1 1 1 1 2 2 1 1 1 0 0 0 0 0 0 0 0 0 0 0 0 0 0
0 1 1 1 1 1 0 0 0 0 0 0 0 0 0 0 0 0 0 0 0 1 1 1 1 2 1 1 1 0 0 0 0 0 0 0 0 0 0 0 0 0 0
2 2 1 1 2 2 2 1 1 1 1 0 0 0 0 0 0 0 0 0 0 0 1 1 1 1 1 1 1 1 0 0 0 0 0 0 0 0 0 0 0 0 0
1 1 1 2 2 2 2 2 2 1 1 1 1 1 1 1 1 0 1 1 0 0 0 1 1 1 1 1 1 1 1 0 0 0 0 0 0 0 0 0 0 0 0
0 0 1 1 1 2 3 3 4 3 2 2 1 1 2 1 1 2 2 1 0 1 0 1 1 1 1 1 1 1 1 1 0 0 0 0 0 0 0 0 0 0 0
0 1 0 1 0 1 1 0 0 1 2 3 2 2 2 2 2 1 1 1 0 1 1 1 0 0 1 1 1 1 1 1 1 0 0 0 0 0 0 0 0 0 0
0 0 0 0 0 0 0 0 0 0 0 1 1 1 1 1 1 2 2 1 1 1 1 1 0 1 1 1 1 1 1 1 1 1 0 0 0 0 0 0 0 0 0
0 0 0 0 0 0 0 0 0 0 0 0 1 1 0 1 1 1 2 1 1 1 1 1 1 1 0 0 1 1 1 0 0 1 0 0 0 0 0 0 0 0 0
0 0 0 0 0 0 0 0 0 0 0 0 0 1 1 1 1 0 1 2 2 1 1 1 1 0 0 0 1 1 1 0 0 0 0 1 0 0 0 0 0 0 0
0 0 0 0 0 0 0 0 0 0 0 0 0 0 0 1 1 0 1 1 1 1 1 1 1 0 1 0 0 1 1 0 0 0 0 0 1 0 0 0 0 0 0
0 0 0 0 0 0 0 0 0 0 0 0 0 0 0 0 0 0 0 0 0 0 1 0 0 0 1 1 1 0 0 0 0 0 0 0 0 0 0 0 0 0 0
0 0 0 0 0 0 0 0 0 0 0 0 0 0 0 0 0 0 0 0 0 0 0 0 0 0 1 0 1 0 1 0 0 0 0 0 0 0 0 0 0 0 0
0 0 0 0 0 0 0 0 0 0 0 0 0 0 0 0 0 0 0 0 0 0 0 1 1 1 2 1 0 0 1 0 0 0 0 0 0 0 0 0 0 0 0
0 0 0 0 0 0 0 0 0 0 0 0 0 0 0 0 0 0 0 0 0 0 0 0 0 0 0 0 0 0 1 0 0 0 0 0 0 0 0 0 0 0 0
0 0 0 0 0 0 0 0 0 0 0 0 0 0 0 0 0 0 0 0 0 0 0 0 0 0 0 0 0 0 0 0 0 0 0 0 0 0 0 0 0 0 0
0 0 0 0 0 0 0 0 0 0 0 0 0 0 0 0 0 0 0 0 0 0 0 0 0 0 0 0 0 0 0 0 0 0 0 0 0 0 0 0 0 0 0
0 0 0 0 0 0 0 0 0 0 0 0 0 0 0 0 0 0 0 0 0 0 0 0 0 0 0 0 0 0 0 0 0 0 -0 -0 0 0 0 0 0 0 0
0 0 0 0 0 0 0 0 0 0 0 0 0 0 0 0 0 0 0 0 0 0 0 0 0 0 0 0 0 1 0 0 0 0 0 -0 -0 0 0 0 0 0 0
0 0 0 0 0 0 0 0 0 0 0 0 0 0 0 0 0 0 0 0 0 0 0 0 0 0 0 0 0 0 0 0 0 0 0 0 0 0 0 0 0 0 0
0 0 0 0 0 0 0 0 0 0 0 0 0 0 0 0 0 0 0 0 0 0 0 0 0 0 0 0 0 0 0 0 0 0 0 0 0 0 0 0 0 0 0
0 0 0 0 0 0 0 0 0 0 0 0 0 0 0 0 0 0 0 0 0 0 0 0 0 0 0 0 0 0 0 0 0 0 0 0 0 0 0 0 0 0 0
0 0 0 0 0 0 0 0 0 0 0 0 0 0 0 0 0 0 0 0 0 0 0 0 0 0 0 0 0 0 0 0 0 0 0 0 0 0 0 0 0 0 0
0 0 0 0 0 0 0 0 0 0 0 0 0 0 0 0 0 0 0 0 0 0 0 0 0 0 0 0 0 0 0 0 0 0 0 0 0 0 0 0 0 0 0
0 0 0 0 0 0 0 0 0 0 0 0 0 0 0 0 0 0 0 0 0 0 0 0 0 0 0 0 0 0 0 0 0 0 0 0 0 0 0 0 0 0 0
0 0 0 0 0 0 0 0 0 0 0 0 0 0 0 0 0 0 0 0 0 0 0 0 0 0 0 0 0 0 0 0 0 0 0 0 0 0 0 0 0 0 0
Wind_Speed_500mb
18 18 19 21 23 24 24 25 25 27 28 30 30 31 32 33 34 33 31 41 43 38 36 39 36 35 28 24 23 23 24 22 21 24 25 26 27 24 23 27 26 23 21
20 21 22 23 25 25 27 29 29 31 32 34 36 37 40 39 37 37 37 38 45 45 46 42 41 43 37 29 26 26 26 26 23 25 27 28 28 27 26 28 26 23 21
22 27 26 27 27 29 32 34 35 36 39 38 40 41 42 42 43 43 42 39 41 46 47 41 40 42 41 38 35 29 27 28 27 25 30 30 30 29 28 27 26 23 21
21 29 22 27 33 35 34 36 38 40 42 45 46 48 47 43 43 44 42 42 40 40 36 36 41 40 39 42 43 41 33 31 31 28 30 32 32 32 31 28 26 25 22
33 36 30 27 39 38 33 40 46 48 46 48 48 53 52 52 50 49 41 40 40 39 41 44 42 40 42 44 49 49 45 38 35 33 31 33 36 36 34 31 28 25 23
33 36 37 41 42 45 34 42 47 51 51 51 55 56 49 47 49 52 52 46 49 44 41 42 42 43 45 39 39 45 55 51 42 38 34 34 38 38 37 34 31 27 23
23 23 25 29 31 34 37 41 50 49 46 34 43 38 39 43 43 41 37 40 42 40 37 32 31 39 43 45 42 46 45 52 54 44 38 35 35 39 39 38 34 30 25
22 22 23 24 34 31 33 36 43 45 47 37 32 36 39 38 36 21 27 25 32 35 37 36 35 28 33 41 47 49 48 45 53 53 45 38 36 38 40 40 38 34 29
23 25 24 26 24 29 28 35 32 33 37 40 35 31 19 19 42 43 38 37 32 29 32 27 26 35 32 36 38 43 51 52 48 51 53 45 39 38 40 42 42 39 33
24 25 24 26 26 20 28 27 27 27 28 29 30 23 25 35 28 32 31 24 28 25 24 22 26 37 40 36 40 40 48 44 44 42 44 54 46 42 43 45 45 44 39
28 25 26 25 26 25 25 22 33 31 25 23 27 33 31 27 24 20 31 26 29 28 32 31 41 38 41 40 43 43 45 47 48 48 48 52 53 50 45 46 48 47 44
19 27 27 27 27 27 26 27 29 26 29 29 26 25 24 23 26 27 36 40 41 42 34 38 43 45 44 42 40 41 35 35 33 40 49 52 55 59 52 48 49 50 49
17 24 26 30 30 33 31 31 21 29 30 28 28 26 25 21 23 19 22 28 34 36 33 32 41 40 43 46 34 39 39 39 38 36 38 46 54 58 56 51 47 54 55
16 20 22 25 28 30 32 31 26 28 28 25 30 31 25 25 25 23 27 31 35 30 28 38 29 22 13 27 33 26 26 30 32 32 34 31 38 52 61 66 67 55 57
12 19 21 24 26 28 31 33 30 30 32 30 27 26 29 26 26 27 33 29 26 26 39 31 34 24 21 20 32 30 27 27 31 26 25 27 25 24 34 54 63 78 65
17 21 23 25 27 29 31 35 33 31 33 31 29 32 30 27 30 28 29 32 37 33 31 36 34 30 30 28 27 34 31 27 27 26 27 29 30 28 30 36 42 51 65
22 24 26 29 30 31 32 36 39 34 34 33 31 30 31 30 30 30 29 30 31 33 39 40 42 41 41 36 36 38 39 36 28 28 26 31 33 37 41 43 45 48 52
26 31 33 34 33 35 35 37 41 35 39 35 34 35 35 30 32 32 28 34 32 35 36 47 41 41 38 34 30 27 24 29 29 34 39 33 30 35 42 52 51 49 51
33 32 33 31 32 35 38 39 33 38 41 35 34 39 43 34 32 28 24 31 32 34 35 36 42 36 29 27 22 21 27 22 24 22 26 41 38 34 37 43 53 52 45
51 45 35 20 28 39 40 42 35 40 41 34 37 36 33 37 33 27 28 25 31 31 34 39 41 36 33 23 24 23 26 20 28 30 30 34 31 35 38 38 41 51 58
38 38 47 59 56 34 41 45 52 54 36 36 35 33 33 37 35 34 23 24 26 28 32 38 33 39 27 22 22 27 25 31 33 31 33 30 37 34 35 43 41 39 48
41 41 42 42 42 34 39 45 49 46 35 31 35 35 32 34 33 32 24 30 24 31 32 28 31 38 31 26 26 27 28 33 39 29 35 36 33 37 37 36 37 39 35
36 37 34 33 31 32 36 41 36 39 32 33 38 36 37 33 39 36 39 40 31 34 38 35 37 30 29 29 33 33 37 39 43 43 34 39 31 35 37 38 42 36 38
36 35 36 31 31 32 35 39 43 34 32 34 33 32 35 35 39 46 49 46 42 40 40 41 39 44 40 39 39 36 45 46 44 42 37 43 34 36 35 37 40 39 43
34 32 31 30 31 30 39 39 45 36 35 37 34 35 38 34 39 43 48 43 42 39 40 48 38 31 47 47 44 41 38 39 38 32 28 34 34 30 27 28 40 32 38
37 32 33 38 29 31 40 44 46 35 37 32 28 27 29 32 31 42 46 43 37 35 38 45 58 48 48 48 41 48 47 44 40 35 24 21 29 29 36 30 28 31 21
Wind_Direction_500mb
278 286 282 282 277 272 271 273 273 274 275 277 277 276 277 274 272 275 279 282 285 291 295 294 294 291 287 297 295 298 305 294 273 255 249 244 243 243 246 265 279 282 279
282 283 290 292 289 284 278 274 274 273 273 274 274 273 276 278 278 277 279 283 290 291 291 297 293 287 275 278 287 288 298 299 281 256 248 245 244 246 251 265 271 272 272
290 284 287 286 285 286 279 278 278 279 278 277 275 275 274 275 275 275 276 281 286 286 287 285 298 293 275 268 274 282 285 291 291 268 250 245 243 245 253 266 268 267 267
260 262 270 278 280 266 275 277 279 277 277 275 275 276 278 280 278 279 277 277 278 281 298 292 294 292 293 271 267 272 277 281 288 282 257 248 245 245 254 263 261 262 265
272 273 272 276 270 273 279 281 279 280 283 278 274 276 276 274 275 276 274 284 284 278 275 281 288 286 285 283 270 265 265 272 276 282 269 250 247 247 251 259 254 253 259
298 297 293 290 283 280 283 268 269 265 266 269 270 271 271 276 276 278 279 275 281 276 276 269 277 286 286 281 284 278 266 262 265 271 274 261 247 249 251 253 249 247 250
324 329 325 313 300 298 293 283 276 278 272 289 284 287 276 279 280 272 277 276 272 275 274 269 282 274 279 282 277 274 272 265 259 260 267 268 255 246 249 246 241 240 242
347 348 336 346 330 327 321 312 306 300 289 287 300 300 293 285 273 274 266 256 282 264 270 285 277 273 272 273 278 275 269 266 258 255 258 263 261 248 242 240 237 234 235
3 357 0 355 353 354 344 334 330 332 321 308 297 293 308 284 297 287 291 290 260 274 265 269 288 293 275 276 271 270 273 270 265 253 257 256 259 252 239 236 233 231 230
359 0 359 358 356 360 344 348 343 330 322 318 311 300 290 286 293 300 283 296 261 244 259 266 279 284 282 273 271 264 263 263 264 257 257 253 251 252 243 235 232 231 229
358 9 4 5 359 358 346 354 354 352 355 337 332 317 308 297 299 312 305 294 278 295 291 278 289 280 282 278 268 269 260 257 254 257 259 259 249 248 244 240 234 232 230
6 10 16 19 5 5 355 352 343 344 353 355 2 3 354 341 323 317 308 307 305 297 297 292 285 279 273 271 267 262 264 266 262 262 254 253 251 246 243 240 238 235 233
10 11 18 15 14 9 3 352 9 350 337 343 337 337 335 335 341 335 320 322 320 321 301 279 289 285 271 266 265 262 264 268 264 264 265 258 249 240 240 240 242 240 239
350 2 1 1 2 1 1 14 356 345 328 332 331 332 336 322 308 308 314 317 318 307 331 326 313 334 336 337 307 295 282 275 277 274 262 266 259 246 239 247 238 243 241
347 335 344 344 348 350 350 352 340 346 336 332 327 321 328 318 310 309 307 312 306 317 317 322 325 305 313 340 332 332 306 292 280 280 280 272 268 260 253 248 243 238 239
329 330 328 330 334 338 340 345 342 336 330 330 326 319 322 318 314 310 306 303 304 297 299 309 317 315 316 321 311 321 316 311 300 286 282 275 269 265 265 259 255 258 248
309 308 309 311 316 323 327 333 334 334 328 322 318 314 312 314 315 318 311 306 301 299 297 300 304 312 317 312 309 294 299 308 310 306 293 279 271 270 268 260 258 259 259
296 303 302 302 303 311 320 322 327 323 329 321 315 310 304 305 309 313 315 316 307 305 301 303 299 303 308 304 319 324 302 299 308 316 321 309 293 281 271 263 265 262 259
303 297 291 300 301 312 316 315 316 321 324 320 316 307 304 297 299 309 315 320 318 310 305 301 300 297 301 303 290 306 299 302 312 313 319 314 313 314 293 279 271 268 258
300 294 287 280 302 303 310 304 308 316 319 319 306 302 306 303 296 295 312 312 313 319 310 304 303 302 296 302 314 331 314 323 319 313 304 304 291 310 319 298 288 268 257
301 294 294 293 293 303 299 301 306 310 317 313 316 310 313 314 307 300 293 301 312 316 315 315 310 317 321 346 335 334 327 313 314 312 305 301 292 288 298 298 303 291 257
314 308 303 298 308 300 295 297 302 310 314 312 317 317 308 315 318 322 332 299 304 308 299 303 301 309 324 332 323 328 325 315 306 303 308 298 296 292 289 286 289 303 284
321 316 313 311 306 302 298 304 312 310 315 310 309 314 316 307 303 304 313 316 313 307 307 299 294 291 301 302 312 317 308 302 298 298 301 301 303 301 287 285 277 292 302
319 322 320 311 310 310 309 313 310 321 315 312 309 303 308 307 302 306 307 316 309 299 290 296 296 295 293 291 294 303 306 306 305 309 300 292 297 295 300 284 281 279 290
322 323 318 327 318 320 314 314 318 332 317 315 312 310 314 299 301 305 322 324 314 302 287 277 281 285 285 287 288 301 299 293 294 293 294 289 290 297 289 291 280 273 274
314 316 321 322 325 321 312 314 326 332 322 324 311 303 309 298 311 321 321 321 314 319 319 297 269 272 282 287 291 282 280 286 299 303 312 312 295 293 298 296 295 294 304
Wind_Speed_850mb
18 18 19 21 23 24 24 25 25 27 28 30 30 31 32 33 34 33 31 41 43 38 36 39 36 35 28 24 23 23 24 22 21 24 25 26 27 24 23 27 26 23 21
20 21 22 23 25 25 27 29 29 31 32 34 36 37 40 39 37 37 37 38 45 45 46 42 41 43 37 29 26 26 26 26 23 25 27 28 28 27 26 28 26 23 21
22 27 26 27 27 29 32 34 35 36 39 38 40 41 42 42 43 43 42 39 41 46 47 41 40 42 41 38 35 29 27 28 27 25 30 30 30 29 28 27 26 23 21
21 29 22 27 33 35 34 36 38 40 42 45 46 48 47 43 43 44 42 42 40 40 36 36 41 40 39 42 43 41 33 31 31 28 30 32 32 32 31 28 26 25 22
33 36 30 27 39 38 33 40 46 48 46 48 48 53 52 52 50 49 41 40 40 39 41 44 42 40 42 44 49 49 45 38 35 33 31 33 36 36 34 31 28 25 23
33 36 37 41 42 45 34 42 47 51 51 51 55 56 49 47 49 52 52 46 49 44 41 42 42 43 45 39 39 45 55 51 42 38 34 34 38 38 37 34 31 27 23
23 23 25 29 31 34 37 41 50 49 46 34 43 38 39 43 43 41 37 40 42 40 37 32 31 39 43 45 42 46 45 52 54 44 38 35 35 39 39 38 34 30 25
22 22 23 24 34 31 33 36 43 45 47 37 32 36 39 38 36 21 27 25 32 35 37 36 35 28 33 41 47 49 48 45 53 53 45 38 36 38 40 40 38 34 29
23 25 24 26 24 29 28 35 32 33 37 40 35 31 19 19 42 43 38 37 32 29 32 27 26 35 32 36 38 43 51 52 48 51 53 45 39 38 40 42 42 39 33
24 25 24 26 26 20 28 27 27 27 28 29 30 23 25 35 28 32 31 24 28 25 24 22 26 37 40 36 40 40 48 44 44 42 44 54 46 42 43 45 45 44 39
28 25 26 25 26 25 25 22 33 31 25 23 27 33 31 27 24 20 31 26 29 28 32 31 41 38 41 40 43 43 45 47 48 48 48 52 53 50 45 46 48 47 44
19 27 27 27 27 27 26 27 29 26 29 29 26 25 24 23 26 27 36 40 41 42 34 38 43 45 44 42 40 41 35 35 33 40 49 52 55 59 52 48 49 50 49
17 24 26 30 30 33 31 31 21 29 30 28 28 26 25 21 23 19 22 28 34 36 33 32 41 40 43 46 34 39 39 39 38 36 38 46 54 58 56 51 47 54 55
16 20 22 25 28 30 32 31 26 28 28 25 30 31 25 25 25 23 27 31 35 30 28 38 29 22 13 27 33 26 26 30 32 32 34 31 38 52 61 66 67 55 57
12 19 21 24 26 28 31 33 30 30 32 30 27 26 29 26 26 27 33 29 26 26 39 31 34 24 21 20 32 30 27 27 31 26 25 27 25 24 34 54 63 78 65
17 21 23 25 27 29 31 35 33 31 33 31 29 32 30 27 30 28 29 32 37 33 31 36 34 30 30 28 27 34 31 27 27 26 27 29 30 28 30 36 42 51 65
22 24 26 29 30 31 32 36 39 34 34 33 31 30 31 30 30 30 29 30 31 33 39 40 42 41 41 36 36 38 39 36 28 28 26 31 33 37 41 43 45 48 52
26 31 33 34 33 35 35 37 41 35 39 35 34 35 35 30 32 32 28 34 32 35 36 47 41 41 38 34 30 27 24 29 29 34 39 33 30 35 42 52 51 49 51
33 32 33 31 32 35 38 39 33 38 41 35 34 39 43 34 32 28 24 31 32 34 35 36 42 36 29 27 22 21 27 22 24 22 26 41 38 34 37 43 53 52 45
51 45 35 20 28 39 40 42 35 40 41 34 37 36 33 37 33 27 28 25 31 31 34 39 41 36 33 23 24 23 26 20 28 30 30 34 31 35 38 38 41 51 58
38 38 47 59 56 34 41 45 52 54 36 36 35 33 33 37 35 34 23 24 26 28 32 38 33 39 27 22 22 27 25 31 33 31 33 30 37 34 35 43 41 39 48
41 41 42 42 42 34 39 45 49 46 35 31 35 35 32 34 33 32 24 30 24 31 32 28 31 38 31 26 26 27 28 33 39 29 35 36 33 37 37 36 37 39 35
36 37 34 33 31 32 36 41 36 39 32 33 38 36 37 33 39 36 39 40 31 34 38 35 37 30 29 29 33 33 37 39 43 43 34 39 31 35 37 38 42 36 38
36 35 36 31 31 32 35 39 43 34 32 34 33 32 35 35 39 46 49 46 42 40 40 41 39 44 40 39 39 36 45 46 44 42 37 43 34 36 35 37 40 39 43
34 32 31 30 31 30 39 39 45 36 35 37 34 35 38 34 39 43 48 43 42 39 40 48 38 31 47 47 44 41 38 39 38 32 28 34 34 30 27 28 40 32 38
37 32 33 38 29 31 40 44 46 35 37 32 28 27 29 32 31 42 46 43 37 35 38 45 58 48 48 48 41 48 47 44 40 35 24 21 29 29 36 30 28 31 21
Wind_Direction_850mb
278 286 282 282 277 272 271 273 273 274 275 277 277 276 277 274 272 275 279 282 285 291 295 294 294 291 287 297 295 298 305 294 273 255 249 244 243 243 246 265 279 282 279
282 283 290 292 289 284 278 274 274 273 273 274 274 273 276 278 278 277 279 283 290 291 291 297 293 287 275 278 287 288 298 299 281 256 248 245 244 246 251 265 271 272 272
290 284 287 286 285 286 279 278 278 279 278 277 275 275 274 275 275 275 276 281 286 286 287 285 298 293 275 268 274 282 285 291 291 268 250 245 243 245 253 266 268 267 267
260 262 270 278 280 266 275 277 279 277 277 275 275 276 278 280 278 279 277 277 278 281 298 292 294 292 293 271 267 272 277 281 288 282 257 248 245 245 254 263 261 262 265
272 273 272 276 270 273 279 281 279 280 283 278 274 276 276 274 275 276 274 284 284 278 275 281 288 286 285 283 270 265 265 272 276 282 269 250 247 247 251 259 254 253 259
298 297 293 290 283 280 283 268 269 265 266 269 270 271 271 276 276 278 279 275 281 276 276 269 277 286 286 281 284 278 266 262 265 271 274 261 247 249 251 253 249 247 250
324 329 325 313 300 298 293 283 276 278 272 289 284 287 276 279 280 272 277 276 272 275 274 269 282 274 279 282 277 274 272 265 259 260 267 268 255 246 249 246 241 240 242
347 348 336 346 330 327 321 312 306 300 289 287 300 300 293 285 273 274 266 256 282 264 270 285 277 273 272 273 278 275 269 266 258 255 258 263 261 248 242 240 237 234 235
3 357 0 355 353 354 344 334 330 332 321 308 297 293 308 284 297 287 291 290 260 274 265 269 288 293 275 276 271 270 273 270 265 253 257 256 259 252 239 236 233 231 230
359 0 359 358 356 360 344 348 343 330 322 318 311 300 290 286 293 300 283 296 261 244 259 266 279 284 282 273 271 264 263 263 264 257 257 253 251 252 243 235 232 231 229
358 9 4 5 359 358 346 354 354 352 355 337 332 317 308 297 299 312 305 294 278 295 291 278 289 280 282 278 268 269 260 257 254 257 259 259 249 248 244 240 234 232 230
6 10 16 19 5 5 355 352 343 344 353 355 2 3 354 341 323 317 308 307 305 297 297 292 285 279 273 271 267 262 264 266 262 262 254 253 251 246 243 240 238 235 233
10 11 18 15 14 9 3 352 9 350 337 343 337 337 335 335 341 335 320 322 320 321 301 279 289 285 271 266 265 262 264 268 264 264 265 258 249 240 240 240 242 240 239
350 2 1 1 2 1 1 14 356 345 328 332 331 332 336 322 308 308 314 317 318 307 331 326 313 334 336 337 307 295 282 275 277 274 262 266 259 246 239 247 238 243 241
347 335 344 344 348 350 350 352 340 346 336 332 327 321 328 318 310 309 307 312 306 317 317 322 325 305 313 340 332 332 306 292 280 280 280 272 268 260 253 248 243 238 239
329 330 328 330 334 338 340 345 342 336 330 330 326 319 322 318 314 310 306 303 304 297 299 309 317 315 316 321 311 321 316 311 300 286 282 275 269 265 265 259 255 258 248
309 308 309 311 316 323 327 333 334 334 328 322 318 314 312 314 315 318 311 306 301 299 297 300 304 312 317 312 309 294 299 308 310 306 293 279 271 270 268 260 258 259 259
296 303 302 302 303 311 320 322 327 323 329 321 315 310 304 305 309 313 315 316 307 305 301 303 299 303 308 304 319 324 302 299 308 316 321 309 293 281 271 263 265 262 259
303 297 291 300 301 312 316 315 316 321 324 320 316 307 304 297 299 309 315 320 318 310 305 301 300 297 301 303 290 306 299 302 312 313 319 314 313 314 293 279 271 268 258
300 294 287 280 302 303 310 304 308 316 319 319 306 302 306 303 296 295 312 312 313 319 310 304 303 302 296 302 314 331 314 323 319 313 304 304 291 310 319 298 288 268 257
301 294 294 293 293 303 299 301 306 310 317 313 316 310 313 314 307 300 293 301 312 316 315 315 310 317 321 346 335 334 327 313 314 312 305 301 292 288 298 298 303 291 257
314 308 303 298 308 300 295 297 302 310 314 312 317 317 308 315 318 322 332 299 304 308 299 303 301 309 324 332 323 328 325 315 306 303 308 298 296 292 289 286 289 303 284
321 316 313 311 306 302 298 304 312 310 315 310 309 314 316 307 303 304 313 316 313 307 307 299 294 291 301 302 312 317 308 302 298 298 301 301 303 301 287 285 277 292 302
319 322 320 311 310 310 309 313 310 321 315 312 309 303 308 307 302 306 307 316 309 299 290 296 296 295 293 291 294 303 306 306 305 309 300 292 297 295 300 284 281 279 290
322 323 318 327 318 320 314 314 318 332 317 315 312 310 314 299 301 305 322 324 314 302 287 277 281 285 285 287 288 301 299 293 294 293 294 289 290 297 289 291 280 273 274
314 316 321 322 325 321 312 314 326 332 322 324 311 303 309 298 311 321 321 321 314 319 319 297 269 272 282 287 291 282 280 286 299 303 312 312 295 293 298 296 295 294 304